Regional Weather Roundup
Issued by NWS

Home | Current Version | Previous Version | Text Only | Print | Product List | Glossary On
Versions: 1 2 3 4 5 6 7 8 9 10 11 12 13 14 15 16 17 18 19 20 21 22 23 24 25 26 27 28 29 30 31 32 33 34 35 36 37 38 39 40 41 42 43 44 45 46 47 48 49 50
000
ASUS42 KTBW 302210
RWRFL
FLORIDA REGIONAL WEATHER ROUNDUP
NATIONAL WEATHER SERVICE TAMPA BAY RUSKIN FL
500 PM EST FRI JAN 30 2015

NOTE: "FAIR" INDICATES FEW OR NO CLOUDS BELOW 12,000 FEET WITH NO
SIGNIFICANT WEATHER AND/OR OBSTRUCTIONS TO VISIBILITY.


FLZ001>010-012>015-112-114-115-302300-
PANHANDLE FLORIDA

CITY           SKY/WX    TMP DP  RH WIND       PRES   REMARKS
PENSACOLA      PTSUNNY   60  30  32 N9        30.27S
PENSACOLA NAS  PTSUNNY   63  30  28 N8        30.27R
MILTON NAS     PTSUNNY   59  29  31 N10       30.28R
CRESTVIEW      PTSUNNY   60  29  30 N9        30.29R
DUKE FIELD     CLOUDY    59  28  30 N9        30.26S
VALPARAISO     PTSUNNY   61  29  29 N14       30.26R
MARY ESTHER    PTSUNNY   61  26  26 N13       30.25R
TRI COUNTY     FAIR      59  31  34 N8        30.26S
PANAMA CITY    FAIR      60  30  32 N12       30.24R
TYNDALL AFB    PTSUNNY   62  31  31 N8        30.25R
APALACHICOLA   PTSUNNY   66  31  27 N7        30.22R

STATION/POSITION SKY/WX   TEMP    WIND        PRES    WAVE   SWELL
                          AIR SEA DIR/SP/G            HT/PER HT/PER
                          (F)     (DEG/KT/KT) (MB)    (FT/S) (FT/S)
30.1N   87.6W              60 62  340/  8/ 10 1024.6F   1/ 3
29.2N   88.2W              56 69   20/ 14/ 17 1025.9R   5/ 6   3/ 6
28.7N   86.0W              60 69   20/ 16/ 17 1023.9R   5/ 6
PANAMA CITY BEAC           61 61  360/  7/ 11 1023.9R
CAPE SAN BLAS    NOT AVBL
TOWER C                    58     340/  7/  8 1023.4R
28.5N   84.5W              61 67   10/ 16/ 19 1022.7R   4/ 5

$$
FLZ011-016>038-118-127-128-134-139-239-302300-
NORTH FLORIDA

CITY           SKY/WX    TMP DP  RH WIND       PRES   REMARKS
MARIANNA       MOSUNNY   60  29  30 N10       30.25R
TALLAHASSEE    PTSUNNY   62  27  26 N9        30.23R
PERRY          MOSUNNY   62  28  28 N9        30.21R
CROSS CITY       N/A     66  29  24 NE8       30.18S
LAKE CITY      FAIR      61  32  33 N6        30.18S
GAINESVILLE    CLOUDY    63  34  33 N8        30.17R
MAYPORT NAS    PTSUNNY   64  32  30 N5        30.16R
JACKSONVILLE   PTSUNNY   63  25  23 NW8       30.17R
JAX NAS        PTSUNNY   67  30  25 NW12      30.17R
JAX CRAIG      SUNNY     64  31  28 NW13      30.16R
JAX CECIL      SUNNY     64  25  22 N13       30.17R
FERNANDINA BEA FAIR      68  30  24 NW13      30.15S
ST AUGUSTINE   SUNNY     61  49  64 N9        30.17R

STATION/POSITION SKY/WX   TEMP    WIND        PRES    WAVE   SWELL
                          AIR SEA DIR/SP/G            HT/PER HT/PER
                          (F)     (DEG/KT/KT) (MB)    (FT/S) (FT/S)
SHELL POINT                62     360/ 10/ 16   N/A
KEATON BEACH               63     360/  4/  6 1022.8R
CEDAR KEY                  66      30/  8/ 10 1021.8R
FERNANDINA                 61 55  320/ 12/ 16 1020.8R
30.7N   81.3W                 57                N/A     2/13
MAYPORT                    63 58  340/  5/ 10 1021.3R
31.4N   80.9W              55 54  350/ 10/ 12 1021.2R   2/ 4   2/11
ST AUGUSTINE               59      20/ 12/ 13 1021.7R

$$
FLZ040-043>046-052-053-057-058-063-144-302300-
INTERIOR CENTRAL FLORIDA

CITY           SKY/WX    TMP DP  RH WIND       PRES   REMARKS
OCALA          SUNNY     66  36  32 N9        30.17R
THE VILLAGES     N/A     66  39  37 N6        30.06R
LEESBURG       PTSUNNY   69  42  37 N10       30.16R
SANFORD        PTSUNNY   70  48  45 N8        30.14R
ORLANDO EXEC   PTSUNNY   71  50  47 N9        30.13S
ORLANDO INTL   PTSUNNY   70  53  54 NW10      30.14R
KISSIMMEE      MOSUNNY   70  55  60 N6        30.14R
WINTER HAVEN   MOSUNNY   72  53  51 NW8       30.15R
LAKELAND       MOSUNNY   70  55  60 NW9       30.15
BARTOW         PTSUNNY   70  55  60 NW8       30.14S
OKEECHOBEE     MOSUNNY   72  55  56 W5        30.13S

$$
FLZ041-047-054-059-064-141-147-302300-
EAST CENTRAL FLORIDA

CITY           SKY/WX    TMP DP  RH WIND       PRES   REMARKS
ORMOND BEACH   MOSUNNY   61  50  67 NE12      30.15R
DAYTONA BEACH  MOSUNNY   64  51  62 NE13      30.16R
DELAND         PTCLDY   N/A N/A N/A N8        30.15S
NEW SMYRNA BEA MOSUNNY   63  54  72 N12G18    30.16R
JFK SPACE CTR  PTSUNNY   64  56  74 NE9       30.14R
TITUSVILLE     PTSUNNY   64  55  72 N17       30.14R
CAPE CANAVERAL PTSUNNY   65  57  74 N10G20    30.14R
PATRICK AFB    MOSUNNY   69  58  65 N9        30.13R
MELBOURNE      MOSUNNY   71  56  58 NW12      30.12R
VERO BEACH     MOSUNNY   72  54  53 NW10      30.12S
FT PIERCE      MOSUNNY   72  54  53 NW8       30.12S
STUART         MOSUNNY   72  48  43 NW7       30.13S

STATION/POSITION SKY/WX   TEMP    WIND        PRES    WAVE   SWELL
                          AIR SEA DIR/SP/G            HT/PER HT/PER
                          (F)     (DEG/KT/KT) (MB)    (FT/S) (FT/S)
28.5N   80.2W              64 68  340/ 16/ 17 1020.3R
28.9N   78.5W              68 73  310/ 21/ 27 1018.6R   8/ 6   2/10
TRIDENT PIER     NOT AVBL
28.4N   80.5W                 63                N/A     1/12
27.6N   80.2W                 66                N/A     2/10   2/12

$$
FLZ050-056-061-142-242-148-248-149-249-151-251-155-255-
160-260-302300-
WEST CENTRAL FLORIDA

CITY           SKY/WX    TMP DP  RH WIND       PRES   REMARKS
CRYSTAL RIVER  FAIR      64  52  63 CALM      30.16R
INVERNESS      FAIR      70  39  32 N6        30.16R
BROOKSVILLE    PTSUNNY   63  53  70 W10       30.17R
ZEPHYRHILLS    FAIR      68  43  40 W9        30.15S
CLEARWATER     SUNNY     64  54  69 NW14      30.16R
TAMPA INTL     PTSUNNY   68  49  50 NW7       30.16R
TAMPA EXEC     MOSUNNY   72  50  46 NW8       30.15R
PLANT CITY       N/A    N/A N/A N/A MISG        N/A
MACDILL AFB    SUNNY     67  57  71 NW8       30.16R
PETER O KNIGHT SUNNY     70  52  52 N5        30.15R
ST PETERSBURG  SUNNY     67  52  58 N9        30.14R
SARASOTA       MOSUNNY   66  59  78 W5        30.14S
VENICE         FAIR      66  61  82 SW7       30.17R

STATION/POSITION SKY/WX   TEMP    WIND        PRES    WAVE   SWELL
                          AIR SEA DIR/SP/G            HT/PER HT/PER
                          (F)     (DEG/KT/KT) (MB)    (FT/S) (FT/S)
CEDAR KEY                  66      30/  8/ 10 1021.8R
28.5N   84.5W              61 67   10/ 16/ 19 1022.7R   4/ 5
27.3N   84.3W                 72                N/A     3/ 4
CLEARWATER BEACH           60 61  340/ 15/ 17 1021.3R
MIDDLE TAMPA BAY           63     300/  5/  7 1021.1F
VENICE                     67 65  240/  3/  3 1020.9R

$$
FLZ066-069-070-075>078-162-262-165-265-302300-
SOUTHWEST FLORIDA AND KEYS

CITY           SKY/WX    TMP DP  RH WIND       PRES   REMARKS
PUNTA GORDA    MOSUNNY   70  57  63 W12       30.16R
FT MYERS       MOSUNNY   70  56  61 NW13      30.14S
SOUTHWEST INTL MOSUNNY   70  55  59 NW10      30.14S
NAPLES         MOSUNNY   67  57  70 NW13      30.15R
MARCO ISLAND   CLEAR     70  54  56 NW12      30.14S
IMMOKALEE      CLEAR    N/A N/A N/A NW6       30.14R
MARATHON       MOSUNNY   68  55  63 NW8       30.14S
KEY WEST NAS   PTSUNNY   70  54  56 N12       30.15S
KEY WEST INTL  SUNNY     70  56  61 N8        30.16R

STATION/POSITION SKY/WX   TEMP    WIND        PRES    WAVE   SWELL
                          AIR SEA DIR/SP/G            HT/PER HT/PER
                          (F)     (DEG/KT/KT) (MB)    (FT/S) (FT/S)
VENICE                     67 65  240/  3/  3 1020.9R
NAPLES                     65     310/ 11/ 11 1021.5R
26.0N   85.6W              70 73  330/  8/  8 1021.7R   1/ 5   2/ 5
DRY TORTUGAS               67      20/ 10/ 11 1021.1F
NW FL BAY                  67     350/  7/  9 1020.9F
SAND KEY                   68     360/ 15/ 17 1021.0R
SOMBRERO KEY               67     340/ 14/ 14 1021.4R
LONG KEY                   67 67  330/ 13/ 14 1021.2F
MOLASSES REEF              70 76  270/ 10/ 11 1020.2R

$$
FLZ067-068-071>074-168-172>174-302300-
SOUTHEAST FLORIDA

CITY           SKY/WX    TMP DP  RH WIND       PRES   REMARKS
W PALM BEACH   PTSUNNY   73  48  41 NW9       30.12R
FT LAUDER-EXEC SUNNY     75  48  38 W9        30.12R
FT LAUDERDALE  PTSUNNY   73  49  42 NW7       30.11S
POMPANO BEACH  SUNNY     77  45  32 N10       30.12R
PEMBROKE PINES SUNNY     74  46  36 NW10      30.13S
OPA LOCKA      SUNNY     74  47  38 N6        30.13R
MIAMI          PTSUNNY   74  48  39 NW5       30.13R
WEST KENDALL   MOSUNNY   76  48  37 CALM      30.13R
HOMESTEAD      MOSUNNY   74  52  45 SE3       30.13R

STATION/POSITION SKY/WX   TEMP    WIND        PRES    WAVE   SWELL
                          AIR SEA DIR/SP/G            HT/PER HT/PER
                          (F)     (DEG/KT/KT) (MB)    (FT/S) (FT/S)
PORT EVERGLADES            73     300/  5/ 10 1019.6



USA.gov is the U.S. government's official web portal to all federal, state and local government web resources and services.